Regional Weather Roundup
Issued by NWS

Home | Current Version | Previous Version | Graphics & Text | Print | Product List | Glossary On
Versions: 1 2 3 4 5 6 7 8 9 10 11 12 13 14 15 16 17 18 19 20 21 22 23 24 25 26 27 28 29 30 31 32 33 34 35 36 37 38 39 40 41 42 43 44 45 46 47 48 49 50
000
ASUS43 KLOT 202000
RWRIL

ILLINOIS REGIONAL WEATHER ROUNDUP
NATIONAL WEATHER SERVICE CHICAGO/ROMEOVILLE IL
300 PM CDT MON OCT 20 2014

NOTE: "FAIR" INDICATES FEW OR NO CLOUDS BELOW 12,000 FEET WITH NO
SIGNIFICANT WEATHER AND/OR OBSTRUCTIONS TO VISIBILITY.

* THESE STATIONS ARE NOT UNDER NWS QUALITY CONTROL. THEY ALSO MAY NOT
  REPORT WEATHER SUCH AS PRECIPITATION OR FOG.

ILZ001-002-007-009-015-016-024-202100-
NORTHWEST ILLINOIS

CITY           SKY/WX    TMP DP  RH WIND       PRES   REMARKS
MOLINE         MOSUNNY   67  44  43 NW15G24   29.92S
STERLING*      MOSUNNY   66  45  45 NW18      29.90S
$$

ILZ003-004-008-010-011-017-018-202100-
NORTH CENTRAL ILLINOIS

CITY           SKY/WX    TMP DP  RH WIND       PRES   REMARKS
ROCKFORD       MOSUNNY   63  41  44 NW15G24   29.90R
$$

ILZ005-006-012>014-019>023-202100-
NORTHEAST ILLINOIS

CITY           SKY/WX    TMP DP  RH WIND       PRES   REMARKS
CHICAGO-OHARE  PTSUNNY   64  45  49 NW18      29.84R
CHICAGO-MIDWAY PTSUNNY   65  48  54 NW14      29.85R
AURORA         MOSUNNY   65  43  44 N18       29.87R
WAUKEGAN       PTSUNNY   55  46  71 N13       29.86R
DUPAGE AIRPORT MOSUNNY   64  44  48 N13       29.85R
WHEELING       MOSUNNY   65  46  50 NW16      29.86R
NORTHERLY ISL    N/A     55  49  80 N9          N/A
$$

LMZ740>746-202100-
SOUTHERN LAKE MICHIGAN

STATION/POSITION SKY/WX   TEMP    WIND        PRES    VSBY  WAVE
                          AIR SEA DIR/SP/G                  HT/PER
                          (F)     (DEG/KT/KT) (MB)    (MI)  (FT/S)
SOUTHERN BUOY              53 55  330/ 16/ 19 1010.6R         2/ 4
WAUKEGAN HARBOR            54      20/ 13/ 16   N/A
HARRISON CRIB              55      10/ 12/ 14   N/A
BURNHAM HARBOR             55      10/  9/ 11   N/A
CALUMET HARBOR             57      10/  7/  9 1009.7R
MICHIGAN CITY              56     290/ 10/ 12   N/A
$$

ILZ025>027-034>036-040-047-049-050-058-095>099-202100-
WEST-CENTRAL ILLINOIS

CITY           SKY/WX    TMP DP  RH WIND       PRES   REMARKS
QUINCY         SUNNY     69  42  37 NW15      29.96F
$$

ILZ028>032-037-038-041>044-048-051>054-059>061-202100-
CENTRAL ILLINOIS

CITY           SKY/WX    TMP DP  RH WIND       PRES   REMARKS
DECATUR        SUNNY     69  46  43 W20G25    29.89F
PEORIA         SUNNY     69  43  38 NW14G24   29.91S
SPRINGFIELD    SUNNY     71  42  35 NW10G20   29.92S
TAYLORVILLE    NOT AVBL
$$

ILZ033-039-045-046-055>057-062-063-202100-
EAST-CENTRAL ILLINOIS

CITY           SKY/WX    TMP DP  RH WIND       PRES   REMARKS
CHAMPAIGN      MOSUNNY   68  46  45 NW16G24   29.88S
MATTOON        SUNNY     69  46  43 NW16G24   29.88S
$$

ILZ079-100>102-202100-
SOUTHWEST ILLINOIS

CITY           SKY/WX    TMP DP  RH WIND       PRES   REMARKS
BELLEVILLE     SUNNY     73  50  43 NW13G18   29.92F
CAHOKIA*       SUNNY     75  48  38 NW16      29.93F
$$

ILZ064>066-069>071-074>076-080>082-084>086-088>090-092>094-202100-
SOUTH-CENTRAL ILLINOIS

CITY           SKY/WX    TMP DP  RH WIND       PRES   REMARKS
CARBONDALE     SUNNY     76  53  44 W9        29.92S HAZE
MARION         MOSUNNY   75  55  50 W12       29.93F
MT. VERNON     SUNNY     73  52  46 W8        29.91F
$$

ILZ067-068-072-073-078-083-087-091-202100-
SOUTHEAST ILLINOIS

CITY           SKY/WX    TMP DP  RH WIND       PRES   REMARKS
LAWRENCEVILLE  SUNNY     74  50  42 W17G31    29.87F
$$

ABBREVIATIONS USED IN REMARKS
   TC - TEMPERATURE IN CELSIUS
  WCI - WIND CHILL INDEX
   HX - HEAT INDEX
  VSB - VISIBILITY
$$




USA.gov is the U.S. government's official web portal to all federal, state and local government web resources and services.